Location: Arnolds Mill
(42.3415°N, 73.5951°W)
Time: 13:05:14
(UTC+00:00)

STARLINK-34439 - Pass Details

Date: 23 June 2025
Orbit: 300 x 301 km, 53.2° (Epoch: 26 June)

Event Time Altitude Azimuth Distance (km) Brightness Sun altitude
Exits shadow 05:57:41 19° 347° (NNW) 814 5.2 -22.7°
Drops below altitude 10° 05:59:21 10° 25° (NNE) 1,175 6.4 -22.7°
Sets 06:01:37 0° 45° (NE) 1,998 7.5 -22.5°
